{"data":{"norad_id":68484,"intl_designator":"2026-067BW","name":"VINDLER 2.2","alt_names":[],"object_type":"PAYLOAD","status":"ACTIVE","operator":null,"country":"US","launch_date":"2026-03-30","launch_site_code":"AFWTR","launch_vehicle":null,"mission":null,"orbit_class":"UNKNOWN","rcs_meters":null,"size_class":null,"mass_kg":null,"dimensions":null,"purposes":[],"wikipedia_slug":null,"has_3d_model":false,"image_url":null,"decayed_at":null,"tle_current":{"epoch":"2026-09-20T04:50:23.417088Z","epoch_age_seconds":94648,"freshness":"FRESH","line1":"1 68484U 26067BW  26263.20165992  .00000731  00000+0  77124-4 0  9999","line2":"2 68484  97.7631 220.9512 0002837  54.1685 305.9797 14.92247186 25949","mean_motion":14.92247186,"eccentricity":0.0002837,"inclination_deg":97.7631,"raan_deg":220.9512,"arg_perigee_deg":54.1685,"mean_anomaly_deg":305.9797,"bstar":7.7124e-5,"rev_number":2594,"period_min":96.498757947733,"perigee_km":588.95323584845,"apogee_km":592.90748466867,"semimajor_km":6969.0673602586,"source":"CELESTRAK","updated_at":"2026-09-20T09:00:24.249428Z"}}}